{"data":{"norad_id":66041,"epoch":"2026-09-20T15:10:34.012704Z","epoch_age_seconds":128902,"freshness":"FRESH","line1":"1 66041U 25233J   26263.63233811  .00000076  00000+0  99334-4 0  9992","line2":"2 66041  89.0061  33.5488 0001490 107.9784 252.1530 13.51035864 46075","mean_motion":13.51035864,"eccentricity":0.000149,"inclination_deg":89.0061,"raan_deg":33.5488,"arg_perigee_deg":107.9784,"mean_anomaly_deg":252.153,"bstar":9.9334e-5,"rev_number":4607,"period_min":106.58488337509,"perigee_km":1067.3402583655,"apogee_km":1069.5593412318,"semimajor_km":7446.5867997986,"source":"CELESTRAK","updated_at":"2026-09-21T09:00:15.733535Z"}}